Location: Unspecified
(49.9820°N, 20.4363°E)
Time: 00:57:31
(UTC+02:00)

ISS - Pass Details

Date: 18 July 2018
Orbit: 402 x 408 km, 51.6° (Epoch: 16 July)

Event Time Altitude Azimuth Distance (km) Brightness Sun altitude
Exits shadow 02:22:48 - 280° (W) 2,373 -0.1 -15.7°
Rises 02:22:54 0° 280° (W) 2,329 -0.1 -15.7°
Reaches altitude 10° 02:25:00 10° 283° (WNW) 1,469 -1.1 -15.5°
Maximum altitude 02:28:17 66° 6° (N) 448 -3.5 -15.3°
Drops below altitude 10° 02:31:34 10° 90° (E) 1,470 -0.7 -15.1°
Sets 02:33:40 0° 94° (E) 2,330 0.3 -15.0°
